Orbital Elements at Epoch 2459200.5 (2020-Dec-17.0) TDB
Reference: JPL 18 (heliocentric ecliptic J2000)
Element | Value | Uncertainty (1-sigma) | Units |
e | .1934906497166483 | 9.6646e-08 | |
a | 2.472907054644744 | 1.7956e-08 | au |
q | 1.994422661952649 | 2.2913e-07 | au |
i | 3.095237132296464 | 4.5075e-06 | deg |
node | 297.6258113061766 | 0.00013218 | deg |
peri | 79.48554480762562 | 0.00013302 | deg |
M | 325.887947286286 | 2.1933e-05 | deg |
tp | 2459335.090829733037 (2021-Apr-30.59082973) | 8.7826e-05 | TDB |
period | 1420.398212635678 3.89 | 1.547e-05 4.235e-08 | d yr |
n | .2534500513993096 | 2.7604e-09 | deg/d |
Q | 2.951391447336838 | 2.143e-08 | au |
|
| | Orbit Determination Parameters
Additional Information
|